Miscellaneous Local Product
Issued by NWS Hastings, NE

Home | Current Version | Previous Version | Text Only | Print | Product List | Glossary Off
Versions: 1 2 3 4 5 6 7 8 9 10 11 12 13 14 15 16 17 18 19 20 21 22 23 24 25 26 27 28 29 30 31 32 33 34 35 36 37 38 39 40 41 42 43 44 45 46 47 48 49 50

000
AXUS43 KGID 010502
MISGRI

GID CWA HOURLY WEATHER ROUNDUP
NATIONAL WEATHER SERVICE HASTINGS NE
1200 AM CDT WED OCT 01 2014

NOTE: "FAIR" INDICATES FEW OR NO CLOUDS BELOW 12,000 FEET WITH NO
SIGNIFICANT WEATHER AND/OR OBSTRUCTIONS TO VISIBILITY.

...SOUTH CENTRAL NEBRASKA...

CITY           SKY/WX    TMP DP  RH WIND       PRES   REMARKS
GRAND ISLAND   CLOUDY    63  61  93 SE9       29.75S FOG
HASTINGS       CLOUDY    63  60  90 SE12      29.74F FOG
KEARNEY        CLOUDY    63  61  94 SE9       29.75F VSB 3/4
ORD            PTCLDY    60  58  92 SE3       29.73R
YORK           CLOUDY    63  63 100 S13       29.76R
AURORA         CLOUDY    63  63 100 SE8       29.75S FOG
LEXINGTON      MOCLDY    56  54  93 CALM      29.74S
HOLDREGE       FOG       59  58  96 CALM      29.74S VSB 1/4
HEBRON         CLOUDY    65  62  90 NE7       29.74F

...NEBRASKA PANHANDLE...

CITY           SKY/WX    TMP DP  RH WIND       PRES   REMARKS
CHADRON        CLOUDY    55  48  77 W8        29.75S
ALLIANCE       CLOUDY    52  45  77 W10       29.77S
SCOTTSBLUFF    CLOUDY    59  44  57 W12       29.79S
SIDNEY         CLOUDY    59  42  53 W10       29.83S

...WESTERN AND NORTH CENTRAL NEBRASKA...

CITY           SKY/WX    TMP DP  RH WIND       PRES   REMARKS
VALENTINE      MOCLDY    53  46  77 SW5       29.71S
AINSWORTH      CLOUDY    59  46  61 S8        29.71S
ONEILL         PTCLDY    62  61  97 SE6       29.73S
BROKEN BOW     CLOUDY    55  51  86 CALM      29.73F
IMPERIAL       CLOUDY    60  48  64 W3        29.77R
NORTH PLATTE   CLOUDY    57  49  74 NW3       29.75R
MCCOOK         CLOUDY    61  52  72 E3        29.75R

...EASTERN NEBRASKA...

CITY           SKY/WX    TMP DP  RH WIND       PRES   REMARKS
NORFOLK        MOCLDY    60  59  96 SE6       29.76S
SO SIOUX CITY  PTCLDY    61  60  97 SE8       29.76F
TEKAMAH        CLOUDY    65  63  93 E5        29.77F
COLUMBUS       MOCLDY    61  57  88 SE6       29.77R
ALBION         CLOUDY    62  59  92 SE7       29.75F
OMAHA EPPLEY   TSTM      66  63  90 SE21G30   29.76F FOG
OFFUTT AFB     TSTM      66  66 100 E12       29.78F
MILLARD        CLOUDY    66  64  93 SE14      29.76R
LINCOLN        RAIN      64  62  93 E6        29.75F FOG
NEBRASKA CITY  CLOUDY    64  64 100 E3        29.78R
BEATRICE       RAIN      64  63  96 CALM      29.75S
FALLS CITY     TSTM      66  65  96 CALM      29.76R FOG

...NORTHERN KANSAS...

CITY           SKY/WX    TMP DP  RH WIND       PRES   REMARKS
GOODLAND       MOCLDY    55  48  77 W7        29.80R
HILL CITY      CLOUDY    64  63  96 E8        29.72S FOG
NORTON         CLOUDY    63  61  94 E5        29.72S FOG
PHILLIPSBURG   CLOUDY    66  66 100 E7        29.72S
SMITH CENTER   CLEAR     63  63 100 E9        29.72S FOG
BELOIT         CLEAR     64  63  94 N3        29.70R
HAYS           CLEAR     61  55  82 CALM      29.71R
RUSSELL        PTCLDY    65  62  90 SE7       29.68S
CONCORDIA      MOCLDY    65  65 100 SE3       29.72R
SALINA         RAIN      68  65  90 SE6       29.73S FOG
TOPEKA         CLOUDY    75  63  66 S15       29.75F



USA.gov is the U.S. government's official web portal to all federal, state and local government web resources and services.